User: anonymous   Login
Location: Columbia
(38.9520°N, 92.3340°W)
Time: 06:36:10
(UTC-06:00)
Language:

Meteor 1-4 Rocket - Orbit

View from above orbital plane
View from above orbital plane
View from above satellite
View from above satellite

Ground track
Ground track

The orbit data is extracted from the following two-line orbital elements,

1 04394U 70037B   17054.85868904  .00001721  00000-0  60759-4 0  9994
2 04394  81.2443 147.8711 0041942 149.6406 210.7272 15.27764814547465
Epoch (UTC): 23 February 2017 20:36:30
Eccentricity: 0.0041942
inclination: 81.2443°
perigee height: 454 km
apogee height: 511 km
right ascension of ascending node: 147.8711°
argument of perigee: 149.6406°
revolutions per day: 15.27764814
mean anomaly at epoch: 210.7272°
orbit number at epoch: 54746

The dashed part of the orbit path shows where the satellite is in the earth's shadow,  

DLR